"read_dt","SO2 (ppb)","flags","PMT voltage (V)","lamp voltage (V)","lamp intensity (Hz)","internal temp (C)","react chamber temp (C)","sample flow (l/min)","pres (mmHg)","SO2 bkg (ppb)","SO2 coefficient"
2015-07-21 00:00:00,1671E-3,5C000000,-0724,0821,12253,026.0,045.4,0.477,731.0,01.19,0.508
2015-07-21 00:01:00,1546E-3,5C000000,-0724,0822,12283,026.0,045.4,0.477,731.0,01.19,0.508
2015-07-21 00:02:00,1710E-3,5C000000,-0724,0821,12176,026.0,045.4,0.477,731.0,01.19,0.508
2015-07-21 00:03:00,1763E-3,5C000000,-0724,0821,12325,026.0,045.4,0.477,731.0,01.19,0.508
2015-07-21 00:04:00,1753E-3,5C000000,-0724,0822,12348,026.0,045.4,0.477,731.0,01.19,0.508
2015-07-21 00:05:00,1643E-3,5C000000,-0724,0822,12262,026.0,045.4,0.477,731.0,01.19,0.508
2015-07-21 00:06:00,1692E-3,5C000000,-0724,0822,12323,026.0,045.4,0.477,731.0,01.19,0.508
2015-07-21 00:07:00,1535E-3,5C000000,-0724,0822,12332,026.0,045.4,0.477,731.0,01.19,0.508
2015-07-21 00:08:00,1653E-3,5C000000,-0724,0821,12247,026.0,045.4,0.477,731.0,01.19,0.508
2015-07-21 00:09:00,1534E-3,5C000000,-0724,0821,12399,026.0,045.4,0.477,731.0,01.19,0.508
2015-07-21 00:10:00,1704E-3,5C000000,-0724,0822,12298,026.0,045.4,0.477,731.0,01.19,0.508
2015-07-21 00:11:00,1747E-3,5C000000,-0724,0821,12282,026.0,045.4,0.477,731.0,01.19,0.508
2015-07-21 00:12:00,1641E-3,5C000000,-0724,0822,12285,026.0,045.4,0.477,731.0,01.19,0.508
2015-07-21 00:13:00,1687E-3,5C000000,-0724,0821,12237,026.0,045.4,0.477,731.0,01.19,0.508
2015-07-21 00:14:00,1663E-3,5C000000,-0724,0822,12208,026.0,045.4,0.477,731.0,01.19,0.508
2015-07-21 00:15:00,1794E-3,5C000000,-0724,0821,12197,026.0,045.4,0.477,731.0,01.19,0.508
2015-07-21 00:16:00,1717E-3,5C000000,-0724,0822,12194,026.0,045.4,0.477,731.0,01.19,0.508
2015-07-21 00:17:00,1599E-3,5C000000,-0724,0821,12321,026.0,045.4,0.477,731.0,01.19,0.508
2015-07-21 00:18:00,1639E-3,5C000000,-0724,0822,12348,026.0,045.4,0.477,731.0,01.19,0.508
2015-07-21 00:19:00,1583E-3,5C000000,-0724,0822,12204,026.0,045.4,0.477,731.0,01.19,0.508
2015-07-21 00:20:00,1648E-3,5C000000,-0724,0822,12222,026.0,045.4,0.477,731.0,01.19,0.508
2015-07-21 00:21:00,1662E-3,5C000000,-0724,0822,12161,026.0,045.4,0.477,731.0,01.19,0.508
2015-07-21 00:22:00,1750E-3,5C000000,-0724,0821,12181,026.0,045.4,0.477,731.0,01.19,0.508
2015-07-21 00:23:00,1497E-3,5C000000,-0724,0822,12362,026.0,045.4,0.477,731.0,01.19,0.508
2015-07-21 00:24:00,1682E-3,5C000000,-0724,0822,12272,026.0,045.4,0.477,731.0,01.19,0.508
2015-07-21 00:25:00,1740E-3,5C000000,-0724,0822,12256,026.0,045.4,0.477,731.0,01.19,0.508
2015-07-21 00:26:00,1668E-3,5C000000,-0724,0822,12247,026.0,045.4,0.477,731.0,01.19,0.508
2015-07-21 00:27:00,1769E-3,5C000000,-0724,0821,12330,026.0,045.4,0.477,731.0,01.19,0.508
2015-07-21 00:28:00,1645E-3,5C000000,-0724,0821,12279,026.0,045.4,0.477,731.0,01.19,0.508
2015-07-21 00:29:00,1691E-3,5C000000,-0724,0822,12183,026.0,045.4,0.477,731.0,01.19,0.508
2015-07-21 00:30:00,1825E-3,5C000000,-0724,0821,12282,026.0,045.4,0.477,731.1,01.19,0.508
2015-07-21 00:31:00,1619E-3,5C000000,-0724,0821,12366,026.0,045.4,0.477,731.0,01.19,0.508
2015-07-21 00:32:00,1721E-3,5C000000,-0724,0822,12417,026.0,045.4,0.477,731.0,01.19,0.508
2015-07-21 00:33:00,1657E-3,5C000000,-0724,0822,12389,026.0,045.4,0.477,731.1,01.19,0.508
2015-07-21 00:34:00,1642E-3,5C000000,-0724,0822,12203,026.0,045.4,0.477,731.1,01.19,0.508
2015-07-21 00:35:00,1625E-3,5C000000,-0724,0822,12259,026.0,045.4,0.477,731.0,01.19,0.508
2015-07-21 00:36:00,1669E-3,5C000000,-0724,0821,12308,026.0,045.4,0.477,731.0,01.19,0.508
2015-07-21 00:37:00,1734E-3,5C000000,-0724,0822,12134,026.0,045.4,0.477,731.0,01.19,0.508
2015-07-21 00:38:00,1600E-3,5C000000,-0724,0821,12250,026.0,045.4,0.477,731.0,01.19,0.508
2015-07-21 00:39:00,1743E-3,5C000000,-0724,0821,12332,026.0,045.4,0.477,731.0,01.19,0.508
2015-07-21 00:40:00,1772E-3,5C000000,-0724,0822,12308,026.0,045.4,0.477,731.0,01.19,0.508
2015-07-21 00:41:00,1586E-3,5C000000,-0724,0822,12349,026.0,045.4,0.477,731.0,01.19,0.508
2015-07-21 00:42:00,1642E-3,5C000000,-0724,0822,12289,026.0,045.4,0.477,731.0,01.19,0.508
2015-07-21 00:43:00,1676E-3,5C000000,-0724,0821,12189,026.0,045.4,0.477,731.0,01.19,0.508
2015-07-21 00:44:00,1696E-3,5C000000,-0724,0822,12351,026.0,045.4,0.477,731.0,01.19,0.508
2015-07-21 00:45:00,1608E-3,5C000000,-0724,0822,12324,026.0,045.4,0.477,731.0,01.19,0.508
2015-07-21 00:46:00,1630E-3,5C000000,-0724,0822,12179,026.0,045.4,0.477,731.0,01.19,0.508
2015-07-21 00:47:00,1619E-3,5C000000,-0724,0822,12297,026.0,045.4,0.477,731.0,01.19,0.508
2015-07-21 00:48:00,1632E-3,5C000000,-0724,0821,12314,026.0,045.4,0.477,731.1,01.19,0.508
2015-07-21 00:49:00,1770E-3,5C000000,-0724,0821,12270,026.0,045.4,0.477,731.0,01.19,0.508
2015-07-21 00:50:00,1649E-3,5C000000,-0724,0822,12255,026.0,045.4,0.477,731.1,01.19,0.508
2015-07-21 00:51:00,1768E-3,5C000000,-0724,0822,12312,026.0,045.4,0.477,731.0,01.19,0.508
2015-07-21 00:52:00,1823E-3,5C000000,-0724,0822,12298,026.0,045.4,0.477,731.0,01.19,0.508
2015-07-21 00:53:00,1606E-3,5C000000,-0724,0822,12303,026.0,045.4,0.477,731.0,01.19,0.508
2015-07-21 00:54:00,1592E-3,5C000000,-0724,0821,12372,026.0,045.4,0.477,731.0,01.19,0.508
2015-07-21 00:55:00,1620E-3,5C000000,-0724,0821,12199,026.1,045.4,0.477,731.1,01.19,0.508
2015-07-21 00:56:00,1709E-3,5C000000,-0724,0821,12259,026.0,045.4,0.477,731.0,01.19,0.508
2015-07-21 00:57:00,1610E-3,5C000000,-0724,0822,12200,026.1,045.4,0.477,731.1,01.19,0.508
2015-07-21 00:58:00,1574E-3,5C000000,-0724,0822,12216,026.0,045.4,0.477,731.1,01.19,0.508
2015-07-21 00:59:00,1632E-3,5C000000,-0724,0821,12159,026.1,045.4,0.477,731.1,01.19,0.508
2015-07-21 01:00:00,1692E-3,5C000000,-0724,0821,12239,026.0,045.4,0.477,731.1,01.19,0.508
2015-07-21 01:01:00,1694E-3,5C000000,-0724,0822,12355,026.1,045.4,0.477,731.0,01.19,0.508
2015-07-21 01:02:00,1825E-3,5C000000,-0724,0821,12260,026.0,045.4,0.477,731.1,01.19,0.508
2015-07-21 01:03:00,1773E-3,5C000000,-0724,0821,12137,026.0,045.4,0.477,731.1,01.19,0.508
2015-07-21 01:04:00,1600E-3,5C000000,-0724,0821,12302,026.1,045.4,0.477,731.1,01.19,0.508
2015-07-21 01:05:00,1656E-3,5C000000,-0724,0821,12181,026.1,045.4,0.477,731.1,01.19,0.508
2015-07-21 01:06:00,1677E-3,5C000000,-0724,0822,12266,026.1,045.4,0.477,731.1,01.19,0.508
2015-07-21 01:07:00,1766E-3,5C000000,-0724,0821,12214,026.0,045.4,0.477,731.1,01.19,0.508
2015-07-21 01:08:00,1625E-3,5C000000,-0724,0821,12229,026.1,045.4,0.477,731.1,01.19,0.508
2015-07-21 01:09:00,1706E-3,5C000000,-0724,0822,12338,026.1,045.4,0.477,731.1,01.19,0.508
2015-07-21 01:10:00,1776E-3,5C000000,-0724,0822,12395,026.1,045.4,0.477,731.0,01.19,0.508
2015-07-21 01:11:00,1848E-3,5C000000,-0724,0821,12273,026.1,045.4,0.477,731.1,01.19,0.508
2015-07-21 01:12:00,1698E-3,5C000000,-0724,0822,12197,026.1,045.4,0.477,731.1,01.19,0.508
2015-07-21 01:13:00,1655E-3,5C000000,-0724,0821,12309,026.1,045.4,0.477,731.1,01.19,0.508
2015-07-21 01:14:00,1636E-3,5C000000,-0724,0821,12279,026.1,045.4,0.477,731.1,01.19,0.508
2015-07-21 01:15:00,1669E-3,5C000000,-0724,0822,12214,026.1,045.4,0.477,731.1,01.19,0.508
2015-07-21 01:16:00,1640E-3,5C000000,-0724,0822,12260,026.1,045.4,0.477,731.1,01.19,0.508
2015-07-21 01:17:00,1658E-3,5C000000,-0724,0821,12184,026.1,045.4,0.477,731.0,01.19,0.508
2015-07-21 01:18:00,1566E-3,5C000000,-0724,0822,12254,026.1,045.4,0.477,731.0,01.19,0.508
2015-07-21 01:19:00,1725E-3,5C000000,-0724,0821,12006,026.1,045.4,0.477,731.1,01.19,0.508
2015-07-21 01:20:00,1714E-3,5C000000,-0724,0821,12287,026.1,045.4,0.477,731.1,01.19,0.508
2015-07-21 01:21:00,1603E-3,5C000000,-0724,0822,12263,026.1,045.4,0.477,731.0,01.19,0.508
2015-07-21 01:22:00,1611E-3,5C000000,-0724,0821,12203,026.1,045.4,0.477,731.1,01.19,0.508
2015-07-21 01:23:00,1550E-3,5C000000,-0724,0822,12234,026.1,045.4,0.477,731.1,01.19,0.508
2015-07-21 01:24:00,1657E-3,5C000000,-0724,0822,12385,026.1,045.4,0.477,731.1,01.19,0.508
2015-07-21 01:25:00,1666E-3,5C000000,-0724,0821,12372,026.1,045.4,0.477,731.1,01.19,0.508
2015-07-21 01:26:00,1741E-3,5C000000,-0724,0821,12225,026.1,045.4,0.477,731.1,01.19,0.508
2015-07-21 01:27:00,1678E-3,5C000000,-0724,0821,12382,026.1,045.4,0.477,731.1,01.19,0.508
2015-07-21 01:28:00,1625E-3,5C000000,-0724,0822,12382,026.1,045.4,0.477,731.1,01.19,0.508
2015-07-21 01:29:00,1675E-3,5C000000,-0724,0821,12199,026.1,045.4,0.477,731.1,01.19,0.508
2015-07-21 01:30:00,1495E-3,5C000000,-0724,0821,12292,026.1,045.4,0.477,731.1,01.19,0.508
2015-07-21 01:31:00,1730E-3,5C000000,-0724,0821,12265,026.1,045.4,0.477,731.1,01.19,0.508
2015-07-21 01:32:00,1760E-3,5C000000,-0724,0821,12264,026.1,045.4,0.477,731.2,01.19,0.508
2015-07-21 01:33:00,1707E-3,5C000000,-0724,0822,12324,026.1,045.4,0.477,731.2,01.19,0.508
2015-07-21 01:34:00,1609E-3,5C000000,-0724,0821,12251,026.1,045.4,0.477,731.2,01.19,0.508
2015-07-21 01:35:00,1599E-3,5C000000,-0724,0822,12386,026.2,045.4,0.477,731.2,01.19,0.508
2015-07-21 01:36:00,1523E-3,5C000000,-0724,0821,12215,026.2,045.4,0.477,731.2,01.19,0.508
2015-07-21 01:37:00,1632E-3,5C000000,-0724,0820,12254,026.2,045.4,0.477,731.2,01.19,0.508
2015-07-21 01:38:00,1686E-3,5C000000,-0724,0821,12207,026.2,045.4,0.477,731.2,01.19,0.508
2015-07-21 01:39:00,1706E-3,5C000000,-0724,0821,12416,026.1,045.4,0.477,731.2,01.19,0.508
2015-07-21 01:40:00,1651E-3,5C000000,-0724,0821,12281,026.2,045.4,0.477,731.2,01.19,0.508
2015-07-21 01:41:00,1680E-3,5C000000,-0724,0821,12325,026.2,045.4,0.477,731.2,01.19,0.508
2015-07-21 01:42:00,1691E-3,5C000000,-0724,0821,12114,026.2,045.4,0.477,731.2,01.19,0.508
2015-07-21 01:43:00,1652E-3,5C000000,-0724,0822,12212,026.2,045.4,0.477,731.2,01.19,0.508
2015-07-21 01:44:00,1760E-3,5C000000,-0724,0821,12347,026.2,045.4,0.477,731.2,01.19,0.508
2015-07-21 01:45:00,1608E-3,5C000000,-0724,0821,12353,026.2,045.4,0.477,731.2,01.19,0.508
2015-07-21 01:46:00,1731E-3,5C000000,-0724,0821,12145,026.2,045.4,0.477,731.2,01.19,0.508
2015-07-21 01:47:00,1631E-3,5C000000,-0724,0821,12265,026.2,045.4,0.477,731.2,01.19,0.508
2015-07-21 01:48:00,1664E-3,5C000000,-0724,0822,12259,026.2,045.4,0.477,731.1,01.19,0.508
2015-07-21 01:49:00,1770E-3,5C000000,-0724,0822,12409,026.2,045.4,0.477,731.1,01.19,0.508
2015-07-21 01:50:00,1619E-3,5C000000,-0724,0821,12350,026.1,045.4,0.477,731.2,01.19,0.508
2015-07-21 01:51:00,1726E-3,5C000000,-0724,0821,12301,026.2,045.4,0.477,731.1,01.19,0.508
2015-07-21 01:52:00,1530E-3,5C000000,-0724,0821,12284,026.2,045.4,0.477,731.1,01.19,0.508
2015-07-21 01:53:00,1525E-3,5C000000,-0724,0821,12247,026.2,045.4,0.477,731.1,01.19,0.508
2015-07-21 01:54:00,1664E-3,5C000000,-0724,0821,12407,026.2,045.4,0.477,731.2,01.19,0.508
2015-07-21 01:55:00,1691E-3,5C000000,-0724,0822,12247,026.2,045.4,0.477,731.2,01.19,0.508
2015-07-21 01:56:00,1662E-3,5C000000,-0724,0821,12415,026.2,045.4,0.477,731.2,01.19,0.508
2015-07-21 01:57:00,1646E-3,5C000000,-0724,0821,12157,026.2,045.4,0.477,731.2,01.19,0.508
2015-07-21 01:58:00,1543E-3,5C000000,-0724,0822,12280,026.2,045.4,0.477,731.2,01.19,0.508
2015-07-21 01:59:00,1612E-3,5C000000,-0724,0821,12334,026.2,045.4,0.477,731.2,01.19,0.508
2015-07-21 02:00:00,1697E-3,5C000000,-0724,0821,12338,026.2,045.4,0.477,731.2,01.19,0.508
2015-07-21 02:01:00,1720E-3,5C000000,-0724,0821,12158,026.2,045.4,0.477,731.2,01.19,0.508
2015-07-21 02:02:00,1605E-3,5C000000,-0724,0820,12253,026.2,045.4,0.477,731.2,01.19,0.508
2015-07-21 02:03:00,1765E-3,5C000000,-0724,0821,12223,026.2,045.4,0.477,731.2,01.19,0.508
2015-07-21 02:04:00,1658E-3,5C000000,-0724,0821,12335,026.2,045.4,0.477,731.2,01.19,0.508
2015-07-21 02:05:00,1682E-3,5C000000,-0724,0821,12160,026.2,045.4,0.477,731.2,01.19,0.508
2015-07-21 02:06:00,1701E-3,5C000000,-0724,0821,12343,026.2,045.4,0.477,731.2,01.19,0.508
2015-07-21 02:07:00,1518E-3,5C000000,-0724,0822,12236,026.2,045.4,0.477,731.2,01.19,0.508
2015-07-21 02:08:00,1583E-3,5C000000,-0724,0821,12275,026.2,045.4,0.477,731.2,01.19,0.508
2015-07-21 02:09:00,1643E-3,5C000000,-0724,0821,12305,026.2,045.4,0.477,731.2,01.19,0.508
2015-07-21 02:10:00,1526E-3,5C000000,-0724,0821,12230,026.2,045.4,0.477,731.2,01.19,0.508
2015-07-21 02:11:00,1590E-3,5C000000,-0724,0821,12374,026.2,045.4,0.477,731.2,01.19,0.508
2015-07-21 02:12:00,1706E-3,5C000000,-0724,0821,12392,026.2,045.4,0.477,731.2,01.19,0.508
2015-07-21 02:13:00,1676E-3,5C000000,-0724,0822,12315,026.3,045.4,0.477,731.2,01.19,0.508
2015-07-21 02:14:00,1609E-3,5C000000,-0724,0821,12338,026.2,045.4,0.477,731.2,01.19,0.508
2015-07-21 02:15:00,1617E-3,5C000000,-0724,0821,12314,026.2,045.4,0.477,731.2,01.19,0.508
2015-07-21 02:16:00,1592E-3,5C000000,-0724,0821,12428,026.2,045.4,0.477,731.2,01.19,0.508
2015-07-21 02:17:00,1700E-3,5C000000,-0724,0821,12221,026.3,045.4,0.477,731.2,01.19,0.508
2015-07-21 02:18:00,1622E-3,5C000000,-0724,0821,12318,026.2,045.4,0.477,731.2,01.19,0.508
2015-07-21 02:19:00,1627E-3,5C000000,-0724,0821,12291,026.3,045.4,0.477,731.2,01.19,0.508
2015-07-21 02:20:00,1659E-3,5C000000,-0724,0820,12187,026.3,045.4,0.476,731.2,01.19,0.508
2015-07-21 02:21:00,1747E-3,5C000000,-0724,0821,12218,026.3,045.4,0.477,731.2,01.19,0.508
2015-07-21 02:22:00,1606E-3,5C000000,-0724,0821,12259,026.2,045.4,0.477,731.2,01.19,0.508
2015-07-21 02:23:00,1592E-3,5C000000,-0724,0821,12189,026.3,045.4,0.477,731.2,01.19,0.508
2015-07-21 02:24:00,1707E-3,5C000000,-0724,0821,12251,026.3,045.4,0.477,731.2,01.19,0.508
2015-07-21 02:25:00,1581E-3,5C000000,-0724,0821,12314,026.3,045.4,0.477,731.2,01.19,0.508
2015-07-21 02:26:00,1731E-3,5C000000,-0724,0821,12365,026.3,045.4,0.477,731.2,01.19,0.508
2015-07-21 02:27:00,1647E-3,5C000000,-0724,0821,12257,026.3,045.4,0.477,731.2,01.19,0.508
2015-07-21 02:28:00,1652E-3,5C000000,-0724,0821,12322,026.2,045.4,0.477,731.2,01.19,0.508
2015-07-21 02:29:00,1503E-3,5C000000,-0724,0820,12241,026.3,045.4,0.477,731.1,01.19,0.508
2015-07-21 02:30:00,1710E-3,5C000000,-0724,0821,12337,026.3,045.4,0.477,731.2,01.19,0.508
2015-07-21 02:31:00,1539E-3,5C000000,-0724,0822,12417,026.3,045.4,0.476,731.2,01.19,0.508
2015-07-21 02:32:00,1573E-3,5C000000,-0724,0821,12393,026.3,045.4,0.477,731.2,01.19,0.508
2015-07-21 02:33:00,1825E-3,5C000000,-0724,0822,12469,026.3,045.4,0.477,731.2,01.19,0.508
2015-07-21 02:34:00,1657E-3,5C000000,-0724,0821,12381,026.3,045.4,0.477,731.2,01.19,0.508
2015-07-21 02:35:00,1584E-3,5C000000,-0724,0822,12287,026.3,045.4,0.477,731.2,01.19,0.508
2015-07-21 02:36:00,1669E-3,5C000000,-0724,0821,12214,026.3,045.4,0.477,731.2,01.19,0.508
2015-07-21 02:37:00,1688E-3,5C000000,-0724,0821,12207,026.3,045.4,0.477,731.2,01.19,0.508
2015-07-21 02:38:00,1717E-3,5C000000,-0724,0822,12371,026.3,045.4,0.477,731.2,01.19,0.508
2015-07-21 02:39:00,1648E-3,5C000000,-0724,0821,12245,026.3,045.4,0.477,731.2,01.19,0.508
2015-07-21 02:40:00,1620E-3,5C000000,-0724,0821,12319,026.3,045.4,0.477,731.2,01.19,0.508
2015-07-21 02:41:00,1811E-3,5C000000,-0724,0822,12388,026.3,045.4,0.477,731.2,01.19,0.508
2015-07-21 02:42:00,1610E-3,5C000000,-0724,0821,12400,026.3,045.4,0.477,731.2,01.19,0.508
2015-07-21 02:43:00,1691E-3,5C000000,-0724,0821,12296,026.3,045.4,0.477,731.2,01.19,0.508
2015-07-21 02:44:00,1652E-3,5C000000,-0724,0821,12295,026.3,045.4,0.477,731.2,01.19,0.508
2015-07-21 02:45:00,1598E-3,5C000000,-0724,0821,12213,026.3,045.4,0.476,731.2,01.19,0.508
2015-07-21 02:46:00,1756E-3,5C000000,-0724,0821,12207,026.3,045.4,0.477,731.2,01.19,0.508
2015-07-21 02:47:00,1623E-3,5C000000,-0724,0822,12224,026.3,045.4,0.477,731.2,01.19,0.508
2015-07-21 02:48:00,1551E-3,5C000000,-0724,0822,12294,026.3,045.4,0.476,731.2,01.19,0.508
2015-07-21 02:49:00,1741E-3,5C000000,-0724,0821,12143,026.3,045.4,0.477,731.2,01.19,0.508
2015-07-21 02:50:00,1598E-3,5C000000,-0724,0822,12292,026.3,045.4,0.477,731.3,01.19,0.508
2015-07-21 02:51:00,1603E-3,5C000000,-0724,0821,12249,026.3,045.4,0.477,731.2,01.19,0.508
2015-07-21 02:52:00,1560E-3,5C000000,-0724,0821,12282,026.4,045.4,0.477,731.3,01.19,0.508
2015-07-21 02:53:00,1641E-3,5C000000,-0724,0821,12301,026.4,045.4,0.476,731.3,01.19,0.508
2015-07-21 02:54:00,1722E-3,5C000000,-0724,0821,12132,026.4,045.4,0.477,731.3,01.19,0.508
2015-07-21 02:55:00,1624E-3,5C000000,-0724,0821,12330,026.4,045.4,0.477,731.3,01.19,0.508
2015-07-21 02:56:00,1691E-3,5C000000,-0724,0821,12297,026.3,045.4,0.476,731.3,01.19,0.508
2015-07-21 02:57:00,1726E-3,5C000000,-0724,0821,12329,026.3,045.4,0.477,731.3,01.19,0.508
2015-07-21 02:58:00,1621E-3,5C000000,-0724,0821,12301,026.3,045.4,0.477,731.3,01.19,0.508
2015-07-21 02:59:00,1579E-3,5C000000,-0724,0820,12297,026.3,045.4,0.477,731.3,01.19,0.508
2015-07-21 03:00:00,1749E-3,5C000000,-0724,0821,12322,026.3,045.4,0.477,731.2,01.19,0.508
2015-07-21 03:01:00,1643E-3,5C000000,-0724,0821,12357,026.4,045.4,0.477,731.2,01.19,0.508
2015-07-21 03:02:00,1556E-3,5C000000,-0724,0821,12263,026.3,045.4,0.477,731.2,01.19,0.508
2015-07-21 03:03:00,1768E-3,5C000000,-0724,0821,12069,026.3,045.4,0.477,731.3,01.19,0.508
2015-07-21 03:04:00,1581E-3,5C000000,-0724,0821,12339,026.4,045.4,0.476,731.3,01.19,0.508
2015-07-21 03:05:00,1657E-3,5C000000,-0724,0822,12357,026.4,045.4,0.477,731.3,01.19,0.508
2015-07-21 03:06:00,1540E-3,5C000000,-0724,0821,12289,026.4,045.4,0.477,731.3,01.19,0.508
2015-07-21 03:07:00,1717E-3,5C000000,-0724,0821,12222,026.3,045.4,0.476,731.3,01.19,0.508
2015-07-21 03:08:00,1664E-3,5C000000,-0724,0821,12358,026.4,045.4,0.477,731.3,01.19,0.508
2015-07-21 03:09:00,1708E-3,5C000000,-0724,0821,12351,026.4,045.4,0.477,731.2,01.19,0.508
2015-07-21 03:10:00,1766E-3,5C000000,-0724,0821,12283,026.4,045.4,0.477,731.3,01.19,0.508
2015-07-21 03:11:00,1579E-3,5C000000,-0724,0821,12297,026.4,045.4,0.477,731.3,01.19,0.508
2015-07-21 03:12:00,1664E-3,5C000000,-0724,0821,12232,026.4,045.4,0.476,731.3,01.19,0.508
2015-07-21 03:13:00,1708E-3,5C000000,-0724,0822,12409,026.4,045.4,0.477,731.3,01.19,0.508
2015-07-21 03:14:00,1715E-3,5C000000,-0724,0822,12260,026.4,045.4,0.477,731.4,01.19,0.508
2015-07-21 03:15:00,1686E-3,5C000000,-0724,0820,12223,026.4,045.4,0.476,731.3,01.19,0.508
2015-07-21 03:16:00,1772E-3,5C000000,-0724,0822,12302,026.4,045.4,0.477,731.3,01.19,0.508
2015-07-21 03:17:00,1604E-3,5C000000,-0724,0821,12325,026.4,045.4,0.477,731.3,01.19,0.508
2015-07-21 03:18:00,1704E-3,5C000000,-0724,0822,12244,026.4,045.4,0.477,731.3,01.19,0.508
2015-07-21 03:19:00,1721E-3,5C000000,-0724,0822,12326,026.4,045.4,0.477,731.3,01.19,0.508
2015-07-21 03:20:00,1689E-3,5C000000,-0724,0821,12316,026.4,045.4,0.476,731.3,01.19,0.508
2015-07-21 03:21:00,1639E-3,5C000000,-0724,0821,12128,026.4,045.4,0.477,731.3,01.19,0.508
2015-07-21 03:22:00,1756E-3,5C000000,-0724,0821,12381,026.4,045.4,0.477,731.3,01.19,0.508
2015-07-21 03:23:00,1794E-3,5C000000,-0724,0821,12308,026.4,045.4,0.476,731.4,01.19,0.508
2015-07-21 03:24:00,1660E-3,5C000000,-0724,0821,12235,026.4,045.4,0.477,731.3,01.19,0.508
2015-07-21 03:25:00,1744E-3,5C000000,-0724,0822,12211,026.4,045.4,0.476,731.4,01.19,0.508
2015-07-21 03:26:00,1741E-3,5C000000,-0724,0821,12401,026.4,045.4,0.477,731.4,01.19,0.508
2015-07-21 03:27:00,1632E-3,5C000000,-0724,0821,12151,026.4,045.4,0.477,731.4,01.19,0.508
2015-07-21 03:28:00,1644E-3,5C000000,-0724,0821,12227,026.4,045.4,0.477,731.4,01.19,0.508
2015-07-21 03:29:00,1561E-3,5C000000,-0724,0821,12281,026.4,045.4,0.477,731.4,01.19,0.508
2015-07-21 03:30:00,1728E-3,5C000000,-0724,0821,12312,026.4,045.4,0.476,731.4,01.19,0.508
2015-07-21 03:31:00,1564E-3,5C000000,-0724,0821,12313,026.4,045.4,0.477,731.5,01.19,0.508
2015-07-21 03:32:00,1663E-3,5C000000,-0724,0821,12195,026.4,045.4,0.476,731.5,01.19,0.508
2015-07-21 03:33:00,1653E-3,5C000000,-0724,0821,12213,026.4,045.4,0.477,731.5,01.19,0.508
2015-07-21 03:34:00,1623E-3,5C000000,-0724,0821,12344,026.4,045.4,0.477,731.5,01.19,0.508
2015-07-21 03:35:00,1777E-3,5C000000,-0724,0822,12312,026.4,045.4,0.476,731.5,01.19,0.508
2015-07-21 03:36:00,1638E-3,5C000000,-0724,0823,12329,026.4,045.4,0.477,731.5,01.19,0.508
2015-07-21 03:37:00,1547E-3,5C000000,-0724,0821,12286,026.4,045.4,0.476,731.5,01.19,0.508
2015-07-21 03:38:00,1745E-3,5C000000,-0724,0821,12371,026.4,045.4,0.477,731.5,01.19,0.508
2015-07-21 03:39:00,1704E-3,5C000000,-0724,0821,12167,026.4,045.4,0.477,731.5,01.19,0.508
2015-07-21 03:40:00,1667E-3,5C000000,-0724,0821,12160,026.4,045.4,0.477,731.5,01.19,0.508
2015-07-21 03:41:00,1646E-3,5C000000,-0724,0821,12326,026.4,045.4,0.477,731.5,01.19,0.508
2015-07-21 03:42:00,1661E-3,5C000000,-0724,0821,12219,026.4,045.4,0.476,731.5,01.19,0.508
2015-07-21 03:43:00,1611E-3,5C000000,-0724,0820,12253,026.4,045.4,0.477,731.5,01.19,0.508
2015-07-21 03:44:00,1626E-3,5C000000,-0724,0821,12265,026.4,045.4,0.476,731.5,01.19,0.508
2015-07-21 03:45:00,1672E-3,5C000000,-0724,0822,12223,026.4,045.4,0.477,731.5,01.19,0.508
2015-07-21 03:46:00,1748E-3,5C000000,-0724,0822,12351,026.4,045.4,0.477,731.6,01.19,0.508
2015-07-21 03:47:00,1652E-3,5C000000,-0724,0821,12327,026.5,045.4,0.477,731.6,01.19,0.508
2015-07-21 03:48:00,1635E-3,5C000000,-0724,0821,12405,026.5,045.4,0.477,731.5,01.19,0.508
2015-07-21 03:49:00,1680E-3,5C000000,-0724,0822,12300,026.4,045.4,0.476,731.5,01.19,0.508
2015-07-21 03:50:00,1557E-3,5C000000,-0724,0820,12311,026.4,045.4,0.477,731.5,01.19,0.508
2015-07-21 03:51:00,1798E-3,5C000000,-0724,0822,12194,026.4,045.4,0.476,731.6,01.19,0.508
2015-07-21 03:52:00,1694E-3,5C000000,-0724,0821,12205,026.5,045.4,0.477,731.6,01.19,0.508
2015-07-21 03:53:00,1595E-3,5C000000,-0724,0821,12136,026.5,045.4,0.477,731.6,01.19,0.508
2015-07-21 03:54:00,1752E-3,5C000000,-0724,0821,12166,026.5,045.4,0.477,731.6,01.19,0.508
2015-07-21 03:55:00,1574E-3,5C000000,-0724,0822,12097,026.5,045.4,0.477,731.6,01.19,0.508
2015-07-21 03:56:00,1798E-3,5C000000,-0724,0821,12255,026.4,045.4,0.476,731.6,01.19,0.508
2015-07-21 03:57:00,1535E-3,5C000000,-0724,0821,12359,026.4,045.4,0.477,731.6,01.19,0.508
2015-07-21 03:58:00,1559E-3,5C000000,-0724,0821,12332,026.5,045.4,0.476,731.6,01.19,0.508
2015-07-21 03:59:00,1740E-3,5C000000,-0724,0821,12212,026.5,045.4,0.477,731.6,01.19,0.508
2015-07-21 04:00:00,1693E-3,5C000000,-0724,0821,12257,026.5,045.4,0.477,731.6,01.19,0.508
2015-07-21 04:01:00,1619E-3,5C000000,-0724,0821,12262,026.5,045.4,0.477,731.6,01.19,0.508
2015-07-21 04:02:00,1676E-3,5C000000,-0724,0822,12298,026.5,045.4,0.477,731.6,01.19,0.508
2015-07-21 04:03:00,1693E-3,5C000000,-0724,0822,12290,026.5,045.4,0.476,731.6,01.19,0.508
2015-07-21 04:04:00,1814E-3,5C000000,-0724,0821,12281,026.5,045.4,0.477,731.6,01.19,0.508
2015-07-21 04:05:00,1662E-3,5C000000,-0724,0821,12229,026.5,045.4,0.476,731.6,01.19,0.508
2015-07-21 04:06:00,1615E-3,5C000000,-0724,0821,12278,026.5,045.4,0.477,731.6,01.19,0.508
2015-07-21 04:07:00,1704E-3,5C000000,-0724,0821,12222,026.5,045.4,0.477,731.6,01.19,0.508
2015-07-21 04:08:00,1577E-3,5C000000,-0724,0820,12311,026.5,045.4,0.477,731.6,01.19,0.508
2015-07-21 04:09:00,1654E-3,5C000000,-0724,0821,12122,026.5,045.4,0.477,731.6,01.19,0.508
2015-07-21 04:10:00,1739E-3,5C000000,-0724,0821,12239,026.5,045.4,0.476,731.6,01.19,0.508
2015-07-21 04:11:00,1595E-3,5C000000,-0724,0821,12169,026.5,045.4,0.477,731.6,01.19,0.508
2015-07-21 04:12:00,1623E-3,5C000000,-0724,0821,12269,026.5,045.4,0.476,731.6,01.19,0.508
2015-07-21 04:13:00,1688E-3,5C000000,-0724,0822,12320,026.5,045.4,0.477,731.6,01.19,0.508
2015-07-21 04:14:00,1682E-3,5C000000,-0724,0821,12253,026.5,045.4,0.477,731.6,01.19,0.508
2015-07-21 04:15:00,1741E-3,5C000000,-0724,0822,12348,026.5,045.4,0.477,731.6,01.19,0.508
2015-07-21 04:16:00,1548E-3,5C000000,-0724,0821,12129,026.5,045.4,0.477,731.6,01.19,0.508
2015-07-21 04:17:00,1708E-3,5C000000,-0724,0821,12250,026.5,045.4,0.476,731.6,01.19,0.508
2015-07-21 04:18:00,1578E-3,5C000000,-0724,0820,12261,026.5,045.4,0.477,731.7,01.19,0.508
2015-07-21 04:19:00,1595E-3,5C000000,-0724,0821,12180,026.5,045.4,0.476,731.7,01.19,0.508
2015-07-21 04:20:00,1728E-3,5C000000,-0724,0821,12244,026.5,045.4,0.477,731.6,01.19,0.508